Somerville, NJ

4:30 PM EDT on May 26, 2017 (GMT -0400)
Somerset

Weather History for KSMQ - August, 2013

Change the Weather History Date:

Saturday, August 10, 2013

  Actual Average Record
Temperature  
Mean Temperature 74 °F -  
Max Temperature 84 °F 85 °F 101 °F (1949)
Min Temperature 64 °F 63 °F 47 °F (1964)
Cooling Degree Days 9    
Growing Degree Days 24 (Base 50)    
Moisture  
Dew Point 66 °F    
Average Humidity 86    
Maximum Humidity 100    
Minimum Humidity 47    
Precipitation  
Precipitation 0.01 in - - ()
Sea Level Pressure  
Sea Level Pressure 29.96 in    
Wind  
Wind Speed 1 mph (NW)    
Max Wind Speed 8 mph    
Max Gust Speed -    
Visibility 4 miles    
Events Fog    
Averages and records for this station are not official NWS values.
T = Trace of Precipitation, MM = Missing Value Source: NWS Daily Summary

Daily Weather History Graph

Daily Weather History Graph

Search for Another Location

Airport or City:

Trip Planner

Search our weather history database for the weather conditions in past years. The results will help you decide how hot, cold, wet, or windy it might be!

Date:

Astronomy

Aug. 10, 2013 Rise Set
Actual Time 6:04 AM EDT 8:02 PM EDT
Civil Twilight 5:34 AM EDT 8:32 PM EDT
Nautical Twilight 4:58 AM EDT 9:08 PM EDT
Astronomical Twilight 4:18 AM EDT 9:47 PM EDT
Moon 9:49 AM EDT (8/10) 9:41 PM EDT (8/10)
Length of Visible Light 14h 57m
Length of Day
13h 58m
Waxing Crescent, 14% of the Moon is Illuminated
Aug 10
Waxing Crescent
Aug 14
First Quarter
Aug 20
Full
Aug 28
Last Quarter
Sep 5
New

Hourly Weather History & Observations

Time (EDT) Temp. Heat Index Dew Point Humidity Pressure Visibility Wind Dir Wind Speed Gust Speed Precip Events Conditions
12:09 AM 71.6 °F - 71.6 °F 100% 29.87 in 1.2 mi Calm Calm - N/A   Partly Cloudy
12:12 AM 71.6 °F - 69.8 °F 94% 29.87 in 0.8 mi Calm Calm - N/A   Mist
12:40 AM 71.6 °F - 69.8 °F 94% 29.87 in 0.2 mi Calm Calm - N/A Fog Fog
12:49 AM 71.6 °F - 69.8 °F 94% 29.87 in 0.8 mi Calm Calm - N/A   Mist
12:53 AM 71.1 °F - 70.0 °F 96% 29.87 in 0.8 mi Calm Calm - N/A   Mist
1:53 AM 71.1 °F - 70.0 °F 96% 29.88 in 0.5 mi Calm Calm - N/A Fog Fog
2:02 AM 71.6 °F - 69.8 °F 94% 29.88 in 1.2 mi Calm Calm - N/A   Scattered Clouds
2:10 AM 69.8 °F - 69.8 °F 100% 29.89 in 0.8 mi Calm Calm - N/A   Mist
2:53 AM 69.1 °F - 68.0 °F 96% 29.90 in 0.5 mi Calm Calm - N/A Fog Fog
3:12 AM 68.0 °F - 66.2 °F 94% 29.91 in 0.2 mi Calm Calm - N/A Fog Fog
3:25 AM 68.0 °F - 66.2 °F 94% 29.91 in 0.5 mi Calm Calm - N/A Fog Fog
3:53 AM 68.0 °F - 66.9 °F 96% 29.91 in 0.5 mi Calm Calm - N/A Fog Fog
4:20 AM 68.0 °F - 66.2 °F 94% 29.93 in 0.2 mi Calm Calm - N/A Fog Fog
4:31 AM 66.2 °F - 66.2 °F 100% 29.93 in 0.5 mi Calm Calm - N/A Fog Fog
4:38 AM 66.2 °F - 66.2 °F 100% 29.94 in 0.2 mi Calm Calm - N/A Fog Fog
4:53 AM 66.9 °F - 66.0 °F 97% 29.94 in 0.2 mi Calm Calm - N/A Fog Fog
5:06 AM 66.2 °F - 66.2 °F 100% 29.94 in 0.5 mi Calm Calm - N/A Fog Fog
5:19 AM 64.4 °F - 64.4 °F 100% 29.94 in 0.2 mi Calm Calm - N/A Fog Fog
5:53 AM 64.9 °F - 64.0 °F 97% 29.95 in 0.2 mi Calm Calm - N/A Fog Fog
6:44 AM 66.2 °F - 64.4 °F 94% 29.97 in 1.0 mi NW 3.5 mph - 0.01 in   Mist
6:47 AM 64.4 °F - 64.4 °F 100% 29.97 in 2.5 mi Calm Calm - 0.01 in   Scattered Clouds
6:53 AM 66.0 °F - 64.9 °F 96% 29.97 in 4.0 mi Calm Calm - 0.01 in   Scattered Clouds
7:53 AM 70.0 °F - 66.9 °F 90% 29.99 in 10.0 mi NW 3.5 mph - N/A   Clear
8:53 AM 73.9 °F - 64.0 °F 71% 29.99 in 10.0 mi Variable 3.5 mph - N/A   Clear
9:53 AM 75.9 °F - 62.1 °F 62% 29.99 in 10.0 mi West 4.6 mph - N/A   Clear
10:53 AM 77.0 °F - 59.0 °F 54% 29.99 in 10.0 mi NNW 6.9 mph - N/A   Clear
11:53 AM 77.0 °F - 61.0 °F 58% 30.00 in 10.0 mi Variable 4.6 mph - N/A   Clear
12:53 PM 79.0 °F - 63.0 °F 58% 29.99 in 10.0 mi Variable 4.6 mph - N/A   Clear
1:53 PM 79.0 °F - 64.0 °F 60% 29.99 in 10.0 mi Variable 3.5 mph - N/A   Clear
2:53 PM 82.0 °F 83.1 °F 63.0 °F 52% 29.98 in 10.0 mi Variable 3.5 mph - N/A   Mostly Cloudy
3:53 PM 84.0 °F 84.5 °F 62.1 °F 47% 29.96 in 10.0 mi West 8.1 mph - N/A   Mostly Cloudy
4:53 PM 84.0 °F 85.8 °F 64.9 °F 53% 29.96 in 10.0 mi Variable 4.6 mph - N/A   Mostly Cloudy
5:53 PM 80.1 °F 81.7 °F 64.0 °F 58% 29.96 in 10.0 mi Calm Calm - N/A   Mostly Cloudy
6:53 PM 81.0 °F 83.0 °F 66.0 °F 60% 29.96 in 10.0 mi Calm Calm - N/A   Scattered Clouds
7:53 PM 73.9 °F - 69.1 °F 85% 29.98 in 10.0 mi Calm Calm - N/A   Partly Cloudy
8:53 PM 72.0 °F - 69.1 °F 91% 30.00 in 10.0 mi Calm Calm - N/A   Clear
9:53 PM 70.0 °F - 66.9 °F 90% 30.03 in 10.0 mi Calm Calm - N/A   Clear
10:22 PM 69.8 °F - 66.2 °F 88% 30.03 in 1.8 mi Calm Calm - N/A   Partly Cloudy
10:30 PM 68.0 °F - 66.2 °F 94% 30.03 in 3.0 mi Calm Calm - N/A   Partly Cloudy
10:53 PM 68.0 °F - 66.0 °F 93% 30.04 in 8.0 mi Calm Calm - N/A   Clear
11:21 PM 66.2 °F - 64.4 °F 94% 30.04 in 5.0 mi NW 3.5 mph - N/A   Partly Cloudy
11:46 PM 66.2 °F - 64.4 °F 94% 30.05 in 1.5 mi Calm Calm - N/A   Clear
11:53 PM 64.9 °F - 64.0 °F 97% 30.05 in 1.0 mi Calm Calm - N/A   Clear
11:59 PM 64.4 °F - 64.4 °F 100% 30.05 in 3.0 mi Calm Calm - N/A   Clear